Regional Weather Roundup
Issued by NWS Boston, MA

Current Version | Previous Version | Text Only | Print | Product List | Glossary Off
Versions: 1 2 3 4 5 6 7 8 9 10 11 12 13 14 15 16 17 18 19 20 21 22 23 24 25 26 27 28
000 ASUS41 KBOX 241710 RWRBOX REGIONAL WEATHER ROUNDUP NATIONAL WEATHER SERVICE TAUNTON MA 100 PM EDT MON JUL 24 2017 NOTE: "FAIR" INDICATES FEW OR NO CLOUDS BELOW 12,000 FEET WITH NO SIGNIFICANT WEATHER AND/OR OBSTRUCTIONS TO VISIBILITY. MAZALL-241800- EASTERN MASSACHUSETTS CITY SKY/WX TMP DP RH WIND PRES REMARKS BOSTON LGT RAIN 58 56 93 NE13G26 29.91S BEVERLY RAIN 57 55 93 NE9 29.92F FOG LAWRENCE RAIN 60 56 86 E12G18 29.96F FOG BEDFORD RAIN 56 54 93 NE16G24 29.90F FOG BLUE HILL N/A 56 54 93 NE16G29 29.88S NORWOOD RAIN 59 58 96 E12 29.88F FOG MARSHFIELD CLOUDY 63 57 82 NE18G28 29.87F PLYMOUTH LGT RAIN 60 57 89 NE10G20 29.86F FOG TAUNTON RAIN 59 56 89 N5 29.85F FOG NEW BEDFORD LGT RAIN 60 58 92 NE15 29.83S FOG $$ MAZALL-241800- CAPE COD AND THE ISLANDS CITY SKY/WX TMP DP RH WIND PRES REMARKS FALMOUTH N/A N/A N/A N/A MISG N/A HYANNIS LGT RAIN 63 60 90 E12 29.81S CHATHAM CLOUDY 65 60 84 E17G24 29.84F PROVINCETOWN LGT RAIN 64 55 72 E16G25 29.86F NANTUCKET CLOUDY 65 63 93 E21G26 29.80F MARTHAS VNYRD LGT RAIN 64 61 90 E10 29.83R FOG $$ MAZALL-241800- CENTRAL AND WESTERN MASSACHUSETTS CITY SKY/WX TMP DP RH WIND PRES REMARKS WORCESTER LGT RAIN 54 52 93 NE10G18 29.92R FITCHBURG LGT RAIN 57 54 89 NE13G18 29.94F ORANGE LGT RAIN 56 54 93 NE6 29.93F FOG SPRINGFIELD LGT RAIN 59 56 89 NE9 29.89F FOG WESTFIELD RAIN 60 59 96 N8 29.90F FOG NORTH ADAMS LGT RAIN 58 54 86 VRB3 29.92R PITTSFIELD CLOUDY 57 53 86 NE12 29.91S $$ RIZALL-241800- RHODE ISLAND CITY SKY/WX TMP DP RH WIND PRES REMARKS PROVIDENCE LGT RAIN 58 58 100 NE14 29.86F FOG NEWPORT LGT RAIN 60 60 100 NE9 29.83S FOG BLOCK ISLAND LGT RAIN 63 62 97 NE13G22 29.81F FOG WESTERLY LGT RAIN 61 59 93 NE9G18 29.81S FOG $$ CTZALL-241800- CONNECTICUT CITY SKY/WX TMP DP RH WIND PRES REMARKS BRADLEY INTL RAIN 58 56 93 N15 29.89F FOG HARTFORD RAIN N/A N/A N/A N14G21 29.87F FOG BRIDGEPORT LGT RAIN 61 57 87 NE17G28 29.81F DANBURY CLOUDY 59 57 93 NE14G26 29.86S GROTON LGT RAIN 60 58 92 N13 29.81R FOG NEW HAVEN LGT RAIN 59 57 93 N16G25 29.83R FOG CHESTER LGT RAIN 57 57 100 N6G13 29.83S MERIDEN LGT RAIN 57 55 93 N12G18 29.86R FOG WILLIMANTIC LGT RAIN 60 58 92 NE12 29.86F OXFORD LGT RAIN 55 50 82 NE14G24 29.85F VSB 1 $$ MEZ002-015-021-024-NHZ003-005-008-011-012-014-VTZ005-008-241800- NORTHERN NEW ENGLAND CITY SKY/WX TMP DP RH WIND PRES REMARKS PORTLAND ME LGT RAIN 64 55 72 E9 30.01 BANGOR ME CLOUDY 71 54 54 SE9 30.04S CONCORD NH LGT RAIN 59 55 87 SE8 29.97F MANCHESTER NH RAIN 59 54 83 NE12G18 29.94F FOG NASHUA NH HVY RAIN 58 57 97 NE6 29.96F FOG PORTSMOUTH NH LGT RAIN 61 54 78 E12 29.95F JAFFREY NH HVY RAIN 55 54 96 VRB3 29.96R FOG KEENE NH RAIN 58 54 86 E8 29.94F BURLINGTON VT LGT RAIN 60 58 92 E3 29.95S MT. WASHINGTON RAIN 36 36 100 SE39 N/A VSB 0 WCI 21 $$ NYZ052-076-241800- EASTERN NEW YORK CITY SKY/WX TMP DP RH WIND PRES REMARKS ALBANY DRIZZLE 61 57 87 N6 29.91S FOG NEW YORK CITY LGT RAIN 64 61 90 N13 29.82R $$ ANZALL-241800- MARINE OBSERVATIONS STATION/POSITION TIME TEMP WIND PRES VSBY WAVE AIR SEA DIR/SP/G HT/PER (UTC) (F) (DEG/KT/KT) (MB) (MI) (FT/S) BOSTON BUOY 1650 60 65 60/ 25/ 29 1010.9F 5/ 5 BUZZARDS BAY 1600 63 70/ 24/ 28 1009.4F NANTUCKET SOUND 1650 71 1008.3F 4/ 5 MASS BAY-STELLWA 1604 63 64 70/ 17/ 25 1012.6F 4/ 5 ISLE OF SHOALS 1600 62 90/ 18/ 19 1014.3F S OF BLOCK IS 1625 73 N/A 7/ 7 $$ ......................KEY......................... SKY/WX - SKY CONDITION/PRESENT WEATHER TMP - TEMPERATURE IN FAHRENHEIT DWPT - DEWPOINT IN FAHRENHEIT RH - RELATIVE HUMIDITY IN PERCENT WIND - DIRECTION AND SPEED IN MPH PRES - MEAN SEA LEVEL PRESSURE IN INCHES OF HG WCI - WIND CHILL INDEX VSB - VISIBILITY IN MILES HX - HEAT INDEX TC - TEMPERATURE IN CELSIUS VRB - VARIABLE WIND DIRECTION N/A - NOT AVAILABLE

USA.gov is the U.S. government's official web portal to all federal, state and local government web resources and services.